カタログに戻る

STARLINK-31260

運用中通信VLEO
NORAD 58881·PAYLOAD·🇺🇸 United States

打ち上げ Jan 29, 2024 から Vandenberg Space Force Base

Loading…

次のパス (今後24時間)

TLE

最新Source: CelesTrak SupGP

元期: Sep 14, 2026, 21:20 UTC

1 58881C 24020F   26257.88937500 -.00055765  00000+0 -16471-2 0  2577
2 58881  53.1581 160.1105 0001307  90.2895  58.9714 15.34428431    13

AllMySatでSTARLINK-31260をリアルタイム追跡

Download on the App Store